Flag for U.S.A. Weather past 2 weeks in West Covina, California, U.S.A.

Now
67 °F

Sunny.


Feels Like: 67 °F
Forecast: 44 / 64 °F
Wind: 9 mph from Southwest

Location: Fullerton Municipal Airport

Current Time: Mar 3, 2015 at 3:17:04 PM

Latest Report: Mar 3, 2015 at 1:53 PM


Visibility: 10 mi

Pressure: 29.88 "Hg

Humidity: 39%

Dew point: 41 °F

Location of West CovinaLocation

Historic Weather in West Covina — Graph

°F

West Covina temperature yesterday

Maximum temperature yesterday: 61 °F (at 1:53 PM)
Minimum temperature yesterday: 49 °F (at 4:53 AM)
Average temperature yesterday: 54 °F

Past Weeks' High & Low Weather Summary

 TemperatureHumidityPressure
High75 °F (Feb 24, 2:53 PM)93% (Feb 23, 3:53 AM)30.23 "Hg (Feb 23, 3:53 AM)
Low45 °F (Feb 24, 5:53 AM)13% (Feb 24, 2:53 PM)29.75 "Hg (Feb 27, 4:53 PM)
Average60 °F67%29.97 "Hg
* Reported Feb 16 1:53 PM — Mar 3 1:53 PM, West Covina, Weather by CustomWeather, © 2015

Note: Actual official high and low records may vary slightly from our data, if they occured in-between our weather recording intervals... More about our weather records

Advertising

West Covina weather history for previous 24 hours

 ConditionsComfort  
Time TempWeatherWind HumidityBarometerVisibility
1:53 PM
Tue, Mar 3
67 °FSunny.9 mph39%29.88 "Hg10 mi
12:53 PM66 °FSunny.5 mph32%29.90 "Hg10 mi
11:53 AM66 °FSunny.N/A34%29.93 "Hg10 mi
10:53 AM63 °FSunny.N/A40%29.95 "HgN/A
9:53 AM61 °FSunny.No wind48%29.96 "Hg10 mi
8:53 AM58 °FSunny.No wind56%29.97 "Hg10 mi
7:53 AM51 °FSunny.No wind71%29.95 "Hg10 mi
6:53 AM46 °FSunny.No wind83%29.93 "Hg10 mi
5:53 AM45 °FClear.No wind82%29.93 "Hg10 mi
4:53 AM46 °FClear.No wind79%29.91 "Hg10 mi
3:53 AM49 °FClear.6 mph74%29.92 "Hg10 mi
2:53 AM48 °FClear.6 mph77%29.94 "Hg10 mi
1:53 AM50 °FClear.6 mph71%29.95 "Hg10 mi
12:53 AM49 °FClear.6 mph74%29.97 "Hg10 mi
11:53 PM
Mon, Mar 2
50 °FClear.5 mph74%29.97 "Hg10 mi
10:53 PM51 °FClear.3 mph71%29.98 "Hg10 mi
9:53 PM53 °FClear.3 mph69%29.97 "Hg10 mi
8:53 PM54 °FClear.6 mph69%29.96 "Hg10 mi
7:53 PM55 °FClear.5 mph69%29.96 "Hg10 mi
6:53 PM55 °FClear.5 mph69%29.94 "Hg10 mi
5:53 PM57 °FClear.9 mph62%29.93 "Hg10 mi
4:53 PM58 °FPassing clouds.7 mph58%29.91 "Hg10 mi
3:53 PM61 °FSunny.7 mph48%29.90 "Hg10 mi
Weather by CustomWeather, © 2015

See weather overviewHow to use our weather pages